FW6085 Weather Reports


time (UTC)temp
F
wind
direction
speed
knots
gust
knots
rain 1hr
in
rain 24hr
in
rain mn
in
humidity
%
barometer
mb
20260504214557 71 178 0.9 7.8 0.00 0.00 0.00 32 1004.6
20260504213050 71 150 2.6 9.6 0.00 0.00 0.00 32 1004.5
20260504211553 72 131 1.7 10.4 0.00 0.00 0.00 32 1004.5
20260504210100 72 141 4.3 11.3 0.00 0.00 0.00 31 1004.6
20260504204558 72 124 4.3 11.3 0.00 0.00 0.00 31 1004.8
20260504203057 72 0 1.7 9.6 0.00 0.00 0.00 32 1005.0
20260504201549 71 138 2.6 8.7 0.00 0.00 0.00 34 1005.2
20260504200100 71 148 4.3 11.3 0.00 0.00 0.00 33 1005.3
20260504194601 71 136 2.6 11.3 0.00 0.00 0.00 34 1005.6
20260504193048 70 0 2.6 8.7 0.00 0.00 0.00 40 1005.8
20260504191608 71 146 2.6 8.7 0.00 0.00 0.00 36 1006.0
20260504190053 71 141 5.2 11.3 0.00 0.00 0.00 37 1006.2
20260504184553 71 148 3.5 11.3 0.00 0.00 0.00 37 1006.1
20260504183054 71 149 4.3 9.6 0.00 0.00 0.00 39 1006.4
20260504181557 68 157 3.5 10.4 0.00 0.00 0.00 41 1006.6
20260504180054 69 141 3.5 10.4 0.00 0.00 0.00 40 1006.7
20260504174551 68 142 3.5 12.2 0.00 0.02 0.00 41 1006.8
20260504173053 69 159 4.3 15.6 0.00 0.02 0.00 43 1006.9
20260504171553 70 172 3.5 10.4 0.00 0.02 0.00 41 1006.9
20260504090106 48 148 3.5 7.0 0.00 0.02 0.00 56 1009.0
20260504081553 49 158 3.5 10.4 0.00 0.02 0.00 55 1009.2
20260504044609 49 149 0.9 3.5 0.00 0.02 0.00 51 1009.9
20260504043055 50 157 0.9 2.6 0.00 0.02 0.00 51 1009.9
20260504041552 50 163 0.0 2.6 0.00 0.02 0.00 49 1009.9
20260504040106 50 0 0.0 1.7 0.00 0.02 0.00 49 1009.9
20260504034607 50 163 0.0 1.7 0.00 0.02 0.02 53 1009.9
20260504033055 51 0 0.0 1.7 0.00 0.02 0.02 50 1010.1
20260504031550 51 0 0.0 1.7 0.00 0.02 0.02 49 1010.3
20260504030056 51 163 0.0 1.7 0.00 0.02 0.02 52 1010.3
20260504024550 50 163 0.0 1.7 0.00 0.02 0.02 53 1010.4
20260504023048 51 0 0.0 0.9 0.00 0.02 0.02 49 1010.3
20260504021553 52 0 0.0 2.6 0.00 0.02 0.02 48 1010.5
20260504020050 52 157 0.9 4.3 0.00 0.02 0.02 48 1010.4
20260504014554 52 203 0.9 5.2 0.00 0.02 0.02 48 1010.3
20260504013111 52 203 3.5 13.0 0.00 0.02 0.02 47 1010.4
20260504011552 53 225 1.7 9.6 0.00 0.02 0.02 46 1010.7
20260504010058 54 181 1.7 11.3 0.00 0.02 0.02 44 1010.3
20260504004607 53 184 3.5 13.9 0.00 0.02 0.02 45 1010.1
20260504003049 53 204 2.6 7.0 0.00 0.02 0.02 47 1010.3
20260504001552 53 240 4.3 10.4 0.00 0.02 0.02 47 1010.3
20260504000056 53 218 2.6 8.7 0.00 0.02 0.02 47 1010.2
20260503234552 53 226 2.6 10.4 0.00 0.02 0.02 46 1010.0
20260503233100 54 234 5.2 16.5 0.00 0.02 0.02 44 1010.0
20260503231553 54 234 0.9 5.2 0.00 0.02 0.02 45 1009.6
20260503230058 54 207 1.7 6.1 0.00 0.02 0.02 44 1009.4
20260503224557 55 252 0.9 7.8 0.00 0.02 0.02 44 1009.2
20260503223052 54 155 0.0 4.3 0.00 0.02 0.02 47 1009.4
20260503221550 54 175 0.9 6.1 0.00 0.02 0.02 45 1009.4
20260503220056 54 201 1.7 6.1 0.00 0.02 0.02 45 1009.5